This is the latest recevied weather packets stored in our database for station/object ALTO-WX. If no packets are shown the sender has not sent any weather packets the latest 1 day(s).
| Time | Temp. | Humidity | Pressure | Rain* | Wind** | Luminosity | Snow |
|---|---|---|---|---|---|---|---|
| 1778079671 | 8.89° C | 51% | 982.8 hPa | 0 mm | - | - | - |
| 1778078739 | 8.33° C | 58% | 982.9 hPa | 0 mm | - | - | - |
| 1778077856 | 7.78° C | 58% | 982.9 hPa | 0 mm | - | - | - |
| 1778075135 | 7.22° C | 66% | 981.8 hPa | 0 mm | - | - | - |
| 1778072464 | 5.56° C | 66% | 981.9 hPa | 0 mm | - | - | - |
| 1778071539 | 5.56° C | 71% | 980.8 hPa | 0 mm | - | - | - |
| 1778061669 | 2.78° C | 70% | 980 hPa | 0 mm | - | - | - |
| 1778059853 | 3.33° C | 68% | 979.3 hPa | 0 mm | - | - | - |
| 1778057136 | 3.89° C | 66% | 978.8 hPa | 0 mm | - | - | - |
| 1778053535 | 3.89° C | 67% | 979.3 hPa | 0 mm | - | - | - |
| 1778052654 | 4.44° C | 67% | 979.3 hPa | 0 mm | - | - | - |
| 1778051735 | 4.44° C | 67% | 979.3 hPa | 0 mm | - | - | - |
| 1778049054 | 5.56° C | 67% | 979.7 hPa | 0 mm | - | - | - |
| 1778048136 | 5.56° C | 67% | 979.7 hPa | 0 mm | - | - | - |
| 1778045451 | 6.11° C | 68% | 979.7 hPa | 0 mm | - | - | - |
| 1778042736 | 6.11° C | 63% | 980.3 hPa | 0 mm | - | - | - |
| 1778040936 | 6.11° C | 66% | 979.8 hPa | 0 mm | - | - | - |
| 1778040072 | 6.67° C | 66% | 979.8 hPa | 0 mm | - | - | - |
| 1778037335 | 6.67° C | 59% | 979.4 hPa | 0 mm | - | - | - |
| 1778036473 | 7.22° C | 59% | 979.4 hPa | 0 mm | - | - | - |
| 1778035535 | 7.22° C | 51% | 979.5 hPa | 0 mm | - | - | - |
| 1778034653 | 7.22° C | 49% | 979.6 hPa | 0 mm | - | - | - |
| 1778032858 | 7.78° C | 49% | 979.6 hPa | 0 mm | - | - | - |
| 1778031934 | 7.78° C | 44% | 979.3 hPa | 0 mm | - | - | - |
| 1778029260 | 8.89° C | 44% | 979.4 hPa | 0 mm | - | - | - |
* Rain latest hour (hover to see other rain measurements)
** Current wind speed in m/s (hover to see current wind gust speed)